Precipitable_Water
1.17 1.25 1.28 1.35 1.44 1.54 1.54 1.55 1.55 1.58 1.58 1.59 1.47 1.40 1.35 1.32 1.37 1.43 1.58 1.71 1.66 1.61 1.56 1.54 1.58 1.69 1.82 1.72 1.70 1.64 1.61 1.60 1.54
0.95 1.14 1.23 1.31 1.36 1.41 1.48 1.48 1.51 1.57 1.59 1.60 1.56 1.40 1.38 1.31 1.35 1.38 1.51 1.73 1.81 1.72 1.67 1.65 1.57 1.69 1.85 1.76 1.70 1.68 1.65 1.65 1.62
0.79 1.00 1.16 1.26 1.34 1.37 1.38 1.41 1.45 1.50 1.58 1.62 1.62 1.51 1.41 1.38 1.37 1.42 1.54 1.71 1.79 1.77 1.70 1.74 1.64 1.64 1.77 1.86 1.76 1.64 1.65 1.63 1.61
0.71 0.89 1.09 1.23 1.29 1.33 1.36 1.37 1.43 1.45 1.52 1.58 1.59 1.59 1.48 1.40 1.50 1.49 1.66 1.73 1.76 1.77 1.75 1.79 1.76 1.66 1.75 1.89 1.84 1.68 1.56 1.56 1.57
0.70 0.79 0.93 1.11 1.25 1.31 1.32 1.35 1.39 1.42 1.45 1.51 1.54 1.53 1.57 1.49 1.55 1.54 1.56 1.71 1.76 1.78 1.79 1.81 1.78 1.83 1.84 1.88 1.86 1.81 1.61 1.44 1.50
0.72 0.75 0.80 0.95 1.07 1.22 1.32 1.35 1.36 1.39 1.35 1.41 1.45 1.50 1.51 1.55 1.53 1.61 1.58 1.59 1.70 1.69 1.83 1.87 1.78 1.78 1.83 1.80 1.80 1.73 1.52 1.38 1.38
0.72 0.73 0.78 0.84 0.92 1.03 1.18 1.31 1.34 1.37 1.38 1.39 1.45 1.52 1.56 1.52 1.55 1.59 1.65 1.65 1.66 1.73 1.76 1.82 1.77 1.70 1.69 1.76 1.73 1.64 1.58 1.34 1.32
0.71 0.74 0.76 0.79 0.81 0.89 1.00 1.13 1.27 1.32 1.34 1.37 1.46 1.49 1.53 1.59 1.54 1.60 1.62 1.68 1.67 1.82 1.78 1.75 1.75 1.68 1.68 1.66 1.70 1.63 1.63 1.50 1.38
0.69 0.71 0.72 0.74 0.77 0.76 0.85 0.96 1.12 1.21 1.31 1.33 1.37 1.41 1.44 1.53 1.56 1.58 1.55 1.61 1.63 1.70 1.80 1.90 1.74 1.71 1.62 1.55 1.62 1.64 1.62 1.56 1.51
0.70 0.69 0.71 0.71 0.74 0.75 0.75 0.81 0.91 1.03 1.17 1.27 1.31 1.36 1.41 1.45 1.50 1.51 1.49 1.52 1.53 1.63 1.74 1.88 1.76 1.74 1.65 1.58 1.59 1.66 1.71 1.68 1.62
0.70 0.69 0.69 0.69 0.69 0.71 0.72 0.72 0.77 0.85 0.96 1.05 1.17 1.28 1.36 1.48 1.53 1.57 1.55 1.55 1.56 1.54 1.66 1.71 1.71 1.72 1.73 1.66 1.59 1.54 1.60 1.60 1.65
0.68 0.67 0.67 0.68 0.69 0.70 0.71 0.73 0.72 0.71 0.76 0.79 0.92 1.02 1.12 1.29 1.42 1.44 1.53 1.52 1.51 1.56 1.51 1.57 1.64 1.65 1.64 1.66 1.62 1.60 1.50 1.54 1.51
0.60 0.58 0.58 0.62 0.62 0.62 0.64 0.65 0.64 0.63 0.64 0.67 0.74 0.77 0.88 1.00 1.19 1.37 1.41 1.46 1.55 1.56 1.47 1.50 1.52 1.61 1.59 1.56 1.54 1.56 1.56 1.53 1.51
0.53 0.51 0.50 0.49 0.45 0.44 0.44 0.46 0.47 0.46 0.50 0.57 0.65 0.72 0.79 0.88 0.98 1.06 1.23 1.32 1.41 1.39 1.35 1.44 1.44 1.45 1.48 1.50 1.49 1.51 1.49 1.51 1.52
0.49 0.49 0.48 0.47 0.44 0.42 0.42 0.40 0.42 0.40 0.41 0.49 0.57 0.66 0.73 0.79 0.83 0.87 0.96 1.03 1.11 1.17 1.22 1.28 1.29 1.32 1.41 1.45 1.46 1.53 1.51 1.47 1.49
0.45 0.45 0.45 0.45 0.43 0.43 0.43 0.41 0.40 0.39 0.43 0.43 0.53 0.56 0.61 0.66 0.74 0.82 0.86 0.90 0.94 0.98 1.06 1.11 1.19 1.28 1.31 1.33 1.32 1.40 1.46 1.45 1.52
0.46 0.45 0.44 0.43 0.42 0.42 0.43 0.43 0.40 0.42 0.44 0.37 0.40 0.39 0.50 0.55 0.61 0.65 0.71 0.78 0.84 0.89 0.93 0.95 1.02 1.10 1.17 1.26 1.32 1.31 1.36 1.40 1.44
0.49 0.49 0.46 0.45 0.45 0.44 0.44 0.43 0.43 0.38 0.42 0.45 0.39 0.32 0.31 0.45 0.57 0.58 0.61 0.62 0.68 0.76 0.81 0.87 0.92 0.95 1.03 1.10 1.17 1.22 1.35 1.39 1.39
0.52 0.52 0.51 0.49 0.49 0.49 0.49 0.48 0.45 0.44 0.37 0.39 0.44 0.46 0.44 0.35 0.35 0.50 0.52 0.57 0.58 0.62 0.67 0.71 0.79 0.86 0.90 0.94 1.03 1.11 1.17 1.24 1.28
0.52 0.53 0.53 0.52 0.51 0.51 0.51 0.49 0.47 0.45 0.40 0.39 0.36 0.37 0.42 0.43 0.38 0.34 0.41 0.47 0.50 0.53 0.57 0.61 0.64 0.69 0.75 0.81 0.89 0.98 1.03 1.14 1.19
Wind_Speed
20 20 20 19 19 18 18 19 18 17 17 16 15 16 16 16 16 16 16 15 16 16 16 17 18 19 19 19 20 19 18 17 15
19 19 20 20 20 20 20 19 20 19 18 18 17 16 17 17 17 18 18 17 18 18 18 18 19 20 20 20 20 21 20 19 17
18 19 19 20 21 21 22 22 21 20 20 19 19 18 18 17 18 18 19 19 19 19 20 20 20 21 21 21 21 21 21 21 19
17 18 19 20 20 22 22 22 23 22 21 21 21 20 19 19 19 19 19 20 20 20 21 21 21 22 22 22 22 22 22 22 21
17 19 19 19 20 21 22 23 24 25 23 22 22 21 21 20 21 21 21 21 21 21 23 23 22 22 23 23 22 23 23 23 23
17 18 19 20 21 21 22 23 24 26 26 25 23 22 22 22 22 23 24 23 24 25 23 23 24 24 24 24 23 23 24 23 24
17 18 18 19 20 20 20 22 24 26 27 27 25 24 24 25 24 25 25 25 25 24 26 26 26 25 26 27 26 24 23 24 24
15 15 16 18 19 19 19 20 22 25 28 29 28 26 25 26 26 26 27 27 27 25 27 28 28 27 27 28 27 25 25 25 25
14 14 14 16 17 18 19 19 19 21 25 28 30 30 28 27 26 25 26 28 28 27 26 23 29 28 27 28 28 27 26 26 27
13 14 13 14 15 16 18 19 19 18 21 24 26 29 30 30 29 29 28 28 30 30 26 23 27 28 29 29 29 28 28 28 28
12 12 12 13 14 15 16 18 19 19 19 21 24 26 27 27 31 31 31 31 30 31 31 28 29 27 25 28 30 30 29 29 30
12 12 11 11 12 13 14 16 18 19 20 21 22 24 26 27 27 29 30 31 33 32 34 31 30 29 32 29 29 33 31 30 31
12 11 11 11 12 12 13 15 16 18 20 21 23 24 25 26 27 28 29 29 26 31 33 33 26 26 30 31 33 27 29 32 32
12 11 11 11 11 11 12 13 13 14 15 17 19 22 24 25 25 26 27 26 27 28 28 30 32 30 30 33 33 35 35 30 30
13 13 13 13 13 13 13 13 14 14 15 15 14 15 19 21 23 25 26 26 27 27 28 28 28 27 28 27 30 33 34 38 37
14 14 14 14 14 14 15 15 16 16 16 17 17 16 15 17 19 22 23 24 26 26 27 28 28 26 28 28 29 29 30 31 38
15 15 16 15 16 16 17 17 17 17 17 18 19 20 20 19 19 20 22 23 24 25 26 27 27 28 27 27 26 29 29 31 33
17 17 17 17 18 18 18 19 18 19 19 18 19 20 21 22 23 22 22 22 24 25 24 25 27 28 27 28 28 26 26 27 27
19 19 19 20 20 20 20 20 20 20 20 21 21 21 22 23 24 24 24 24 24 24 26 26 26 26 28 29 28 29 29 26 26
21 21 22 22 22 23 23 23 22 21 21 22 22 22 23 24 25 26 26 26 26 26 27 27 26 27 28 28 28 28 28 29 28
Wind_Direction
266 264 263 262 261 260 259 260 260 257 255 253 254 249 246 243 238 233 228 227 223 220 216 212 209 207 205 202 201 200 199 198 197
267 265 263 262 261 260 258 259 258 257 253 251 252 250 247 244 239 233 229 229 225 222 218 214 212 211 209 207 205 205 205 204 204
269 265 263 261 260 260 258 256 256 255 254 251 251 250 247 243 238 234 231 227 228 226 222 219 215 214 213 210 209 209 210 209 208
271 267 265 263 262 261 260 257 254 254 253 251 250 249 247 243 237 233 231 228 228 225 223 221 218 216 215 214 214 213 213 213 211
275 269 267 265 264 262 260 259 256 253 251 250 251 250 246 243 238 235 234 231 231 232 227 222 220 220 219 219 218 216 215 216 215
280 274 269 267 265 266 262 260 257 253 250 249 249 249 246 244 241 238 236 235 234 234 228 224 223 222 221 220 221 219 218 218 217
285 278 272 268 267 266 265 263 259 254 249 248 248 248 247 246 244 240 238 235 234 234 230 228 228 225 225 225 222 219 218 219 220
290 283 275 271 267 266 267 268 264 258 251 248 248 247 249 247 245 241 239 238 237 238 237 233 231 229 228 226 224 225 224 223 221
292 289 281 275 270 265 267 269 269 264 254 249 248 248 248 247 244 242 241 240 238 240 240 238 233 231 230 229 230 229 227 225 223
294 288 285 279 276 270 267 268 269 269 263 253 250 248 247 246 244 244 244 243 241 239 243 244 236 235 233 232 231 232 231 229 226
299 296 291 284 280 276 272 270 268 268 268 261 253 250 248 248 246 246 245 244 244 240 243 245 245 237 233 235 235 235 235 233 231
300 296 292 290 288 281 278 276 272 269 268 265 259 254 251 250 248 248 246 247 245 243 244 244 248 243 241 241 241 238 236 235 234
304 297 291 293 291 288 285 284 281 276 271 268 262 258 255 252 251 249 247 248 247 244 244 243 249 247 244 242 240 238 236 235 234
304 298 294 294 293 291 291 291 290 288 282 273 268 260 256 254 252 250 247 248 249 251 250 244 244 253 249 247 246 243 240 236 235
300 296 293 291 290 291 290 291 291 291 286 278 274 268 260 256 254 252 250 251 252 252 250 250 249 252 248 250 247 245 243 241 238
298 294 293 291 290 291 290 288 290 291 288 276 272 271 268 263 258 256 255 254 254 253 253 253 251 252 249 251 251 247 243 247 239
297 293 292 292 288 290 291 291 287 286 288 280 274 270 266 267 265 262 261 261 258 257 257 256 253 252 251 250 251 249 252 246 245
295 292 290 290 290 290 290 290 287 284 283 283 276 273 269 268 266 266 266 265 263 261 259 258 255 254 252 251 251 254 250 248 251
292 291 290 289 289 290 289 289 288 285 282 278 277 273 271 270 267 265 266 266 265 264 263 261 259 258 255 254 255 253 250 253 247
291 290 289 288 288 287 287 286 285 284 283 280 277 274 272 270 268 268 267 267 266 264 263 262 262 261 259 256 256 256 255 248 249